Willimantic, CT

6:06 AM EST on December 06, 2019 (GMT -0500)
Windham

Weather History for KIJD - October, 2019

Change the Weather History Date:

Thursday, October 31, 2019

  Actual Average Record
Temperature  
Mean Temperature 64 °F -  
Max Temperature 71 °F 56 °F 75 °F (1989)
Min Temperature 59 °F 29 °F 16 °F (1966)
Growing Degree Days 14 (Base 50)    
Moisture  
Dew Point 64 °F    
Average Humidity 95    
Maximum Humidity 100    
Minimum Humidity 84    
Precipitation  
Precipitation 0.30 in - - ()
Sea Level Pressure  
Sea Level Pressure 29.92 in    
Wind  
Wind Speed 8 mph ()    
Max Wind Speed 28 mph    
Max Gust Speed 43 mph    
Visibility 6.1 miles    
Events Rain    
Averages and records for this station are not official NWS values.
T = Trace of Precipitation, MM = Missing Value Source: Averaged Metar Reports

Daily Weather History Graph

Daily Weather History Graph

Search for Another Location

Airport or City:

Astronomy

Oct. 31, 2019 Rise Set
Actual Time 7:19 AM EDT 5:44 PM EDT
Civil Twilight 6:50 AM EDT 6:13 PM EDT
Nautical Twilight 6:17 AM EDT 6:46 PM EDT
Astronomical Twilight 5:45 AM EDT 7:18 PM EDT
Moon 11:07 AM EDT (10/31) 8:36 PM EDT (10/31)
Length of Visible Light 11h 22m
Length of Day
10h 25m
Waxing Crescent, 15% of the Moon is Illuminated
Oct 31
Waxing Crescent
Nov 4
First Quarter
Nov 12
Full
Nov 19
Last Quarter
Nov 26
New

Hourly Weather History & Observations

Time (EDT) Temp. Dew Point Humidity Pressure Visibility Wind Dir Wind Speed Gust Speed Precip Events Conditions
12:10 AM 62.1 °F 62.1 °F 100% 30.10 in 2.0 mi Calm Calm - 0.01 in Rain Light Rain
12:18 AM 62.1 °F 62.1 °F 100% 30.11 in 2.5 mi South 4.6 mph - 0.01 in Rain Light Rain
12:34 AM 62.1 °F 62.1 °F 100% 30.11 in 2.5 mi South 5.8 mph - 0.01 in   Overcast
12:42 AM 62.1 °F 62.1 °F 100% 30.12 in 3.0 mi South 5.8 mph - 0.01 in   Overcast
12:52 AM 62.1 °F 62.1 °F 100% 30.11 in 4.0 mi South 4.6 mph - 0.01 in   Overcast
1:05 AM 62.1 °F 62.1 °F 100% 30.10 in 5.0 mi South 5.8 mph - N/A   Overcast
1:52 AM 62.1 °F 61.0 °F 96% 30.09 in 6.0 mi South 8.1 mph - 0.00 in Rain Light Rain
2:52 AM 61.0 °F 61.0 °F 100% 30.09 in 10.0 mi South 6.9 mph - 0.00 in   Overcast
3:32 AM 61.0 °F 60.1 °F 97% 30.07 in 10.0 mi South 5.8 mph - 0.02 in Rain Light Rain
3:52 AM 61.0 °F 60.1 °F 97% 30.06 in 10.0 mi South 4.6 mph - 0.02 in   Overcast
4:52 AM 61.0 °F 60.1 °F 97% 30.04 in 10.0 mi South 4.6 mph - N/A   Overcast
4:59 AM 61.0 °F 60.1 °F 97% 30.05 in 10.0 mi South 3.5 mph - N/A   Overcast
5:52 AM 61.0 °F 59.0 °F 93% 30.04 in 6.0 mi South 4.6 mph - 0.00 in Rain Light Rain
6:23 AM 60.1 °F 59.0 °F 96% 30.03 in 10.0 mi SSE 3.5 mph - 0.00 in   Overcast
6:52 AM 61.0 °F 59.0 °F 93% 30.02 in 10.0 mi South 4.6 mph - 0.00 in Rain Light Rain
7:12 AM 60.1 °F 59.0 °F 96% 30.01 in 10.0 mi Variable 3.5 mph - 0.00 in   Overcast
7:44 AM 60.1 °F 57.9 °F 93% 30.00 in 7.0 mi South 5.8 mph - 0.01 in Rain Light Rain
7:52 AM 60.1 °F 57.9 °F 93% 29.99 in 7.0 mi Variable 5.8 mph - 0.01 in Rain Light Rain
8:11 AM 59.0 °F 57.9 °F 96% 29.99 in 5.0 mi SSW 3.5 mph - 0.00 in Rain Light Rain
8:23 AM 59.0 °F 59.0 °F 100% 29.99 in 2.0 mi South 3.5 mph - 0.01 in Rain Light Rain
8:52 AM 61.0 °F 60.1 °F 97% 29.99 in 4.0 mi North - - 0.02 in Rain Light Rain
9:23 AM 62.1 °F 62.1 °F 100% 29.97 in 6.0 mi South 4.6 mph - 0.01 in Rain Light Rain
9:52 AM 64.9 °F 64.0 °F 97% 29.96 in 9.0 mi SSW 8.1 mph - 0.01 in   Overcast
10:05 AM 66.0 °F 64.9 °F 96% 29.95 in 5.0 mi South 11.5 mph - 0.00 in Rain Light Rain
10:52 AM 68.0 °F 66.0 °F 93% 29.94 in 5.0 mi SSW 13.8 mph 21.9 mph 0.01 in Rain Light Rain
11:46 AM 68.0 °F 66.2 °F 94% 29.93 in 2.5 mi South 10.4 mph - 0.08 in Rain Heavy Rain
11:52 AM 68.0 °F 66.0 °F 93% 29.93 in 2.5 mi South 12.7 mph 18.4 mph 0.10 in Rain Rain
11:57 AM 68.0 °F 66.0 °F 93% 29.92 in 1.8 mi South 13.8 mph 21.9 mph 0.02 in Rain Heavy Rain
12:06 PM 68.0 °F 66.0 °F 93% 29.92 in 2.5 mi SSW 11.5 mph 20.7 mph 0.03 in Rain Light Rain
12:13 PM 68.0 °F 66.9 °F 96% 29.92 in 4.0 mi South 11.5 mph - 0.04 in Rain Light Rain
12:29 PM 68.0 °F 66.0 °F 93% 29.91 in 7.0 mi SSW 15.0 mph 21.9 mph 0.04 in Rain Light Rain
12:52 PM 68.0 °F 66.0 °F 93% 29.90 in 4.0 mi SSW 15.0 mph 23.0 mph 0.05 in Rain Light Rain
1:32 PM 66.9 °F 66.0 °F 97% 29.88 in 2.5 mi South 12.7 mph 20.7 mph 0.03 in Rain Light Rain
1:36 PM 66.9 °F 66.0 °F 97% 29.88 in 3.0 mi SSW 15.0 mph 23.0 mph 0.04 in Rain Light Rain
1:52 PM 68.0 °F 66.0 °F 93% 29.87 in 3.0 mi SSW 12.7 mph 21.9 mph 0.06 in Rain Light Rain
2:52 PM 68.0 °F 66.0 °F 93% 29.85 in 6.0 mi SSW 10.4 mph 25.3 mph 0.00 in Rain Light Rain
3:01 PM 68.0 °F 66.0 °F 93% 29.84 in 6.0 mi South 13.8 mph 21.9 mph 0.00 in Rain Light Rain
3:35 PM 66.9 °F 66.0 °F 97% 29.83 in 2.5 mi SSW 12.7 mph 23.0 mph 0.00 in Rain Light Rain
3:43 PM 66.9 °F 66.0 °F 97% 29.83 in 5.0 mi South 13.8 mph 23.0 mph 0.00 in Rain Light Rain
3:52 PM 66.9 °F 66.0 °F 97% 29.82 in 4.0 mi South 18.4 mph 26.5 mph 0.01 in Rain Light Rain
4:52 PM 68.0 °F 66.0 °F 93% 29.79 in 3.0 mi SSW 15.0 mph 28.8 mph 0.00 in Rain Light Rain
5:24 PM 69.1 °F 66.0 °F 90% 29.78 in 9.0 mi SSW 16.1 mph 34.5 mph 0.00 in   Overcast
5:52 PM 69.1 °F 64.9 °F 87% 29.78 in 10.0 mi SSW 16.1 mph 26.5 mph 0.00 in   Overcast
6:24 PM 69.1 °F 66.0 °F 90% 29.76 in 10.0 mi SSW 21.9 mph 32.2 mph N/A   Overcast
6:52 PM 69.1 °F 66.0 °F 90% 29.76 in 10.0 mi SSW 21.9 mph 33.4 mph N/A   Overcast
7:22 PM 69.1 °F 66.0 °F 90% 29.76 in - SSW 19.6 mph 36.8 mph 0.00 in   Unknown
7:52 PM 70.0 °F 66.0 °F 87% 29.74 in 10.0 mi South 19.6 mph 34.5 mph 0.00 in   Overcast
8:52 PM 70.0 °F 66.0 °F 87% 29.70 in 10.0 mi SSW 27.6 mph 42.6 mph 0.00 in   Overcast
9:52 PM 70.0 °F 66.9 °F 90% 29.67 in 9.0 mi SSW 24.2 mph 38.0 mph 0.00 in Rain Light Rain
10:52 PM 70.0 °F 66.9 °F 90% 29.64 in 7.0 mi South 24.2 mph 41.4 mph 0.00 in   Overcast
11:52 PM 71.1 °F 66.0 °F 84% 29.61 in 9.0 mi South 27.6 mph 39.1 mph 0.00 in   Overcast